Find Starlink 11632

NORAD ID: 63108 Int'l Des: 2025-039 Owner: SPXS Country: US Constellation: starlink operational
LEOCIRCULAR

Current View

Loading 3D Globe...

About Starlink 11632

Starlink 11632 (NORAD 63108) is a starlink constellation satellite (v2 mini d2c) launched Feb 27, 2025 by SPXS of US. It operates in LEO, CIRCULAR orbit with a mass of 960.00 kg.

About Starlink 11632

Description loading...

Upcoming Passes

Passes for default location (London). Set your location on the main map for personalized predictions.

Altitude History

Loading altitude history...

Two-Line Element Set

1 63108U 25039E 26170.54834481 .00158143 00000-0 12115-2 0 9994
2 63108 43.0006 343.0141 0003786 288.8690 71.1767 15.70856097 75632
Epoch: Jun 19, 2026 • Age: 8 hours

Current Status

Altitude 359.5 km
Velocity 7.69 km/s
Sub-Earth Point -17.08°S, 53.03°W
Launch Date Feb 27, 2025
Age 1.3 years
Type internet

Technical Details

Classification Payload
Mass 960.00 kg
Dry Mass 910.00 kg
Total Mass 960.00 kg
Length 0.30 m
Diameter 4.10 m
Span 29.00 m
Shape Box + pan
Manufacturer SPXS
Bus Type Starlink V2MD
Phase Status In Orbit
Owner/State SPXS/US

Most Searched